• MPC Preparation (Info)

  • MPEC 2023-K09 : 2023 JH3

    The following Minor Planet Electronic Circular may be linked-to from your own Web pages, but must not otherwise be redistributed electronically.

    A form allowing access to any MPEC is at the bottom of this page.


    Read MPEC 2023-K08 Read MPEC 2023-K10


    M.P.E.C. 2023-K09                                  Issued 2023 May 16, 11:16 UT
    
         The Minor Planet Electronic Circulars contain information on unusual
             minor planets, routine data on comets and natural satellites,
             and occasional editorial announcements.  They are published
        on behalf of Division F of the International Astronomical Union by the
              Minor Planet Center, Smithsonian Astrophysical Observatory,
                              Cambridge, MA 02138, U.S.A.
    			  
                 Prepared using the Tamkin Foundation Computer Network
    
                                  MPC@CFA.HARVARD.EDU
                URL https://www.minorplanetcenter.net/    ISSN 1523-6714
    
                                    2023 JH3                                 
    
    
    Observations:
         K23J03H* C2023 05 14.52606515 35 42.428+15 43 48.46         21.19wXEK009F51
         K23J03H  C2023 05 14.55060515 35 49.582+15 47 31.79         20.81wXEK009F51
         K23J03H  C2023 05 14.56306015 35 53.262+15 49 25.55         21.35wXEK009F51
         K23J03H 3C2023 05 15.44982615 40 43.542+18 05 17.93         21.08GVEK009T14
         K23J03H 3C2023 05 15.45080715 40 43.834+18 05 26.96         21.14GVEK009T14
         K23J03H 3C2023 05 15.45179715 40 44.125+18 05 35.99         21.09GVEK009T14
         K23J03H 3C2023 05 15.45281115 40 44.427+18 05 45.34         21.08GVEK009T14
         K23J03H KC2023 05 16.45419415 46 15.884+20 37 51.78         20.98GVEK009V06
         K23J03H KC2023 05 16.45508315 46 16.176+20 37 59.16         20.79GVEK009V06
         K23J03H KC2023 05 16.45597115 46 16.460+20 38 07.55         20.35GVEK009V06
         K23J03H KC2023 05 16.45685915 46 16.734+20 38 15.40         20.56GVEK009V06
    
    Observer details:
    F51 Pan-STARRS 1, Haleakala.  Observers J. Bulger, T. Lowe, A. Schultz, I.
        Smith.  Measurers K. Chambers, S. Chastel, T. de Boer, J. Fairlamb, H.
        Gao, M. Huber, C.-C. Lin, E. Magnier, Y. Ramanjooloo, R. Wainscoat, R.
        Weryk.  1.8-m Ritchey-Chretien + CCD.
    T14 Canada-France-Hawaii Telescope, Maunakea.  Observers R. Wainscoat, C.
        Cunningham, N. Manset.  Measurers R. Weryk, R. Wainscoat.  3.6-m Canada-
        France-Hawaii Telescope + CCD.
    V06 Catalina Sky Survey-Kuiper.  Observer K. W. Wierzchos.  Measurers E. J.
        Christensen, D. Fay, J. B. Fazekas, D. C. Fuls, A. R. Gibbs, A. D. Grauer,
        H. Groeller, J. K. Hogan, R. A. Kowalski, S. M. Larson, G. J. Leonard, D.
        Rankin, R. L. Seaman, A. Serrano, F. C. Shelly, K. W. Wierzchos.  1.55-m
        reflector + 1K CCD.
    
    Orbital elements:
    2023 JH3                                                 Earth MOID = 0.1106 AU
    Epoch 2023 Feb. 25.0 TT = JDT 2460000.5                 MPC                     
    M 312.43717              (2000.0)            P               Q                  
    n   0.42788343     Peri.   47.89980     -0.06305493     +0.98662971             
    a   1.7441577      Node   219.25594     -0.97136523     -0.09523532             
    e   0.3978248      Incl.   13.73898     -0.22907133     +0.13225751             
    P   2.30           H   24.30          G   0.15           U   9                  
    Residuals in seconds of arc
    230514 F51  0.1+  0.2+    230515 T14  0.0   0.0     230516 V06  0.1+  0.3-
    230514 F51  0.1-  0.3-    230515 T14  0.0   0.0     230516 V06  0.1+  0.1+
    230514 F51  0.0   0.1+    230515 T14  0.0   0.0     230516 V06  0.1-  0.0
    230515 T14  0.0   0.0     230516 V06  0.0   0.3+
    
    Ephemeris:
    2023 JH3                 a,e,i = 1.74, 0.40, 14                  q = 1.0503
    Date    TT    R. A. (2000) Decl.     Delta      r    Elong.  Phase     V
    2023 04 16    14 05 53.3 -28 29 49   0.2300  1.2219   159.9    16.4    22.4
    ...
    2023 05 01    14 39 54.3 -13 30 22   0.1469  1.1541   177.4     2.3    20.7
    ...
    2023 05 09    15 09 12.3 +02 06 03   0.1200  1.1232   160.7    17.3    20.9
    ...
    2023 05 15    15 38 16.9 +16 56 24   0.1114  1.1030   144.2    32.4    21.1
    2023 05 16    15 43 46.1 +19 29 09   0.1110  1.0999   141.4    35.0    21.2
    2023 05 17    15 49 26.3 +22 00 33   0.1110  1.0969   138.6    37.5    21.2
    ...
    2023 05 23    16 27 07.7 +35 51 59   0.1165  1.0806   123.3    51.6    21.7
    ...
    2023 05 31    17 24 40.0 +48 48 06   0.1353  1.0640   108.3    64.7    22.4
    ...
    2023 06 15    19 09 11.7 +58 31 49   0.1849  1.0503    95.7    74.2    23.3
    
    A. U. Tomatic                (C) Copyright 2023 MPC           M.P.E.C. 2023-K09
    


    Read MPEC 2023-K08 Read MPEC 2023-K10


    MPEC number:

    Enter an MPEC number in one of the following forms:

    • 1997-B01 (the full form)
    • J97B01 (the packed version of the full form)
    • B01 (the abbreviated form)